Date String (YYYY-MM-DD hh:mm:ss) UTC,Instrument flags,absolute air pressure of the measurement (hPa),sample flow rate (lpm),inlet stack bypass flow (lpm),air temperature of the measurement (°C),ambient temperature measured by the external sensor (°C),aerosol sample conditioner tube jacket temperature (°C),OPC LED temperature (°C),internal box temperature (°C),relative humidity of the measurement (%),span deviation,mass concentration of particles derived from Lorenz-Mie calculation of OPC scattering (μg/m³),mass concentration of particles derived from Lorenz-Mie calculation of OPC scattering (μg/m³),mass concentration of particles derived from Lorenz-Mie calculation of OPC scattering (μg/m³)
DateTimeUTC,F1_M11,P_M11,Q1_M11,Q2_M11,T1_M11,T2_M11,T3_M11,T4_M11,T5_M11,U1_M11,ZSPAN_M11,X2_M11,X0_M11,X1_M11
2024-06-13 01:00:00,SystemResetWarning,0829.0,5.00,000.00,028.5,026.5,000.0,037.0,029.9,020.8,0000.0,0004.50,0011.37,0003.74
2024-06-13 01:01:00,SystemResetWarning,0829.0,5.00,000.00,028.5,027.0,000.0,037.0,030.1,020.8,0000.0,0004.54,0011.42,0003.77
2024-06-13 01:02:00,SystemResetWarning,0829.0,5.01,000.00,028.6,027.4,000.0,036.9,030.3,020.6,0000.0,0004.52,0011.34,0003.78
2024-06-13 01:03:00,SystemResetWarning,0829.1,4.99,000.00,028.7,027.8,000.0,036.9,030.5,020.6,0000.0,0004.52,0011.14,0003.79
2024-06-13 01:04:00,SystemResetWarning,0829.2,5.00,000.00,028.7,028.1,000.0,037.0,030.6,020.9,0000.0,0004.50,0010.34,0003.79
2024-06-13 01:05:00,SystemResetWarning,0829.2,5.00,000.00,028.8,028.3,000.0,037.0,030.7,021.0,0000.0,0004.54,0010.43,0003.80
2024-06-13 01:06:00,SystemResetWarning,0829.1,5.01,000.00,028.9,028.5,000.0,037.0,030.8,021.1,0000.0,0004.63,0009.93,0003.81
2024-06-13 01:07:00,SystemResetWarning,0829.1,5.00,000.00,029.0,028.7,000.0,037.1,030.9,020.7,0000.0,0004.61,0009.96,0003.82
2024-06-13 01:08:00,SystemResetWarning,0829.0,5.00,000.00,029.1,028.9,000.0,037.1,031.0,020.6,0000.0,0004.61,0009.43,0003.83
2024-06-13 01:09:00,SystemResetWarning,0829.0,4.99,000.00,029.0,027.6,000.0,037.2,030.3,020.7,0000.0,0004.60,0009.26,0003.85
2024-06-13 01:10:00,SystemResetWarning,0828.9,5.01,000.00,028.7,025.6,000.0,037.2,029.4,021.0,0000.0,0004.61,0009.23,0003.85
2024-06-13 01:11:00,SystemResetWarning,0828.9,5.02,000.00,028.4,025.6,000.0,037.2,029.3,021.5,0000.0,0004.65,0009.41,0003.86
2024-06-13 01:12:00,SystemResetWarning,0829.0,4.99,000.00,028.4,026.2,000.0,037.1,029.7,021.6,0000.0,0004.62,0009.37,0003.84
2024-06-13 01:13:00,SystemResetWarning,0829.1,5.00,000.00,028.5,026.6,000.0,037.0,029.9,021.7,0000.0,0004.65,0009.30,0003.84
2024-06-13 01:14:00,SystemResetWarning,0829.0,5.00,000.00,028.5,027.1,000.0,037.0,030.2,021.4,0000.0,0004.68,0009.62,0003.85
2024-06-13 01:15:00,SystemResetWarning,0829.1,5.00,000.00,028.6,027.5,000.0,037.0,030.3,021.3,0000.0,0004.70,0009.75,0003.86
2024-06-13 01:16:00,SystemResetWarning,0829.1,5.00,000.00,028.7,027.8,000.0,037.0,030.5,021.4,0000.0,0004.70,0009.61,0003.85
2024-06-13 01:17:00,SystemResetWarning,0829.1,4.99,000.00,028.8,028.1,000.0,037.0,030.7,021.2,0000.0,0004.61,0009.33,0003.85
2024-06-13 01:18:00,SystemResetWarning,0829.1,4.99,000.00,028.9,028.4,000.0,037.0,030.8,021.2,0000.0,0004.58,0009.13,0003.84
2024-06-13 01:19:00,SystemResetWarning,0829.1,4.99,000.00,029.0,028.6,000.0,037.0,030.9,021.4,0000.0,0004.54,0008.95,0003.84
2024-06-13 01:20:00,SystemResetWarning,0829.1,5.00,000.00,029.1,028.8,000.0,037.1,031.0,021.2,0000.0,0004.55,0009.10,0003.84
2024-06-13 01:21:00,SystemResetWarning,0829.1,5.00,000.00,029.2,028.9,000.0,037.1,031.1,021.2,0000.0,0004.55,0009.68,0003.83
2024-06-13 01:22:00,SystemResetWarning,0829.1,4.99,000.00,029.2,028.4,000.0,037.2,030.8,021.2,0000.0,0004.54,0010.06,0003.81
2024-06-13 01:23:00,SystemResetWarning,0829.0,5.01,000.00,028.9,026.1,000.0,037.3,029.7,021.5,0000.0,0004.51,0010.18,0003.80
2024-06-13 01:24:00,SystemResetWarning,0828.9,5.01,000.00,028.6,025.5,000.0,037.3,029.4,022.0,0000.0,0004.45,0010.09,0003.78
2024-06-13 01:25:00,SystemResetWarning,0829.0,5.01,000.00,028.5,026.0,000.0,037.2,029.6,022.1,0000.0,0004.45,0009.93,0003.78
2024-06-13 01:26:00,SystemResetWarning,0829.1,5.00,000.00,028.5,026.5,000.0,037.1,029.9,022.3,0000.0,0004.41,0009.57,0003.77
2024-06-13 01:27:00,SystemResetWarning,0829.0,5.00,000.00,028.6,027.0,000.0,037.0,030.1,022.3,0000.0,0004.38,0009.48,0003.77
2024-06-13 01:28:00,SystemResetWarning,0829.1,5.00,000.00,028.6,027.4,000.0,037.0,030.3,022.2,0000.0,0004.40,0010.09,0003.78
2024-06-13 01:29:00,SystemResetWarning,0829.0,4.99,000.00,028.7,027.7,000.0,037.0,030.5,021.8,0000.0,0004.40,0010.19,0003.77
2024-06-13 01:30:00,SystemResetWarning,0829.1,5.00,000.00,028.8,028.0,000.0,037.0,030.6,021.9,0000.0,0004.42,0010.46,0003.78
2024-06-13 01:31:00,SystemResetWarning,0829.0,5.00,000.00,028.9,028.3,000.0,037.1,030.8,021.7,0000.0,0004.40,0010.36,0003.79
2024-06-13 01:32:00,SystemResetWarning,0829.0,5.00,000.00,029.0,028.5,000.0,037.1,030.9,021.5,0000.0,0004.37,0009.52,0003.80
2024-06-13 01:33:00,SystemResetWarning,0829.0,5.00,000.00,029.1,028.7,000.0,037.1,031.0,021.7,0000.0,0004.35,0009.08,0003.80
2024-06-13 01:34:00,SystemResetWarning,0829.0,4.99,000.00,029.2,028.9,000.0,037.2,031.1,021.6,0000.0,0004.34,0008.70,0003.81
2024-06-13 01:35:00,SystemResetWarning,0829.0,4.99,000.00,029.2,027.9,000.0,037.2,030.5,021.7,0000.0,0004.35,0008.70,0003.82
2024-06-13 01:36:00,SystemResetWarning,0828.9,5.01,000.00,028.8,025.6,000.0,037.3,029.4,022.4,0000.0,0004.33,0008.86,0003.82
2024-06-13 01:37:00,SystemResetWarning,0829.0,5.01,000.00,028.5,025.4,000.0,037.2,029.3,022.6,0000.0,0004.36,0008.90,0003.83
2024-06-13 01:38:00,SystemResetWarning,0829.0,5.00,000.00,028.4,025.9,000.0,037.1,029.5,022.7,0000.0,0004.37,0008.90,0003.84
2024-06-13 01:39:00,SystemResetWarning,0829.0,5.00,000.00,028.4,026.4,000.0,037.0,029.8,022.7,0000.0,0004.39,0008.78,0003.85
2024-06-13 01:40:00,SystemResetWarning,0828.9,5.00,000.00,028.5,026.9,000.0,037.0,030.1,022.6,0000.0,0004.43,0008.67,0003.87
2024-06-13 01:41:00,SystemResetWarning,0828.9,5.00,000.00,028.6,027.3,000.0,037.0,030.3,022.7,0000.0,0004.43,0008.41,0003.87
2024-06-13 01:42:00,SystemResetWarning,0829.0,5.00,000.00,028.7,027.6,000.0,037.0,030.4,022.4,0000.0,0004.48,0008.45,0003.87
2024-06-13 01:43:00,SystemResetWarning,0829.0,5.00,000.00,028.8,027.9,000.0,037.0,030.6,022.1,0000.0,0004.56,0008.69,0003.88
2024-06-13 01:44:00,SystemResetWarning,0829.1,5.00,000.00,028.8,028.2,000.0,037.0,030.7,022.0,0000.0,0004.58,0009.02,0003.88
2024-06-13 01:45:00,SystemResetWarning,0829.1,5.00,000.00,028.9,028.4,000.0,037.0,030.8,022.0,0000.0,0004.60,0009.18,0003.89
2024-06-13 01:46:00,SystemResetWarning,0829.1,5.00,000.00,029.0,028.6,000.0,037.1,031.0,021.7,0000.0,0004.64,0009.58,0003.89
2024-06-13 01:47:00,SystemResetWarning,0829.1,5.01,000.00,029.1,028.8,000.0,037.1,031.1,021.8,0000.0,0004.66,0009.94,0003.90
2024-06-13 01:48:00,SystemResetWarning,0829.1,5.00,000.00,029.2,028.9,000.0,037.2,031.1,021.3,0000.0,0004.67,0009.96,0003.90
2024-06-13 01:49:00,SystemResetWarning,0829.1,4.97,000.00,029.2,027.6,000.0,037.3,030.5,021.3,0000.0,0004.64,0009.90,0003.89
2024-06-13 01:50:00,SystemResetWarning,0829.0,5.02,000.00,028.8,025.5,000.0,037.3,029.5,021.6,0000.0,0004.62,0009.74,0003.89
2024-06-13 01:51:00,SystemResetWarning,0829.0,5.01,000.00,028.5,025.5,000.0,037.3,029.4,021.6,0000.0,0004.60,0009.84,0003.89
2024-06-13 01:52:00,SystemResetWarning,0829.0,5.00,000.00,028.5,026.0,000.0,037.2,029.6,021.7,0000.0,0004.60,0009.85,0003.90
2024-06-13 01:53:00,SystemResetWarning,0829.1,5.00,000.00,028.5,026.5,000.0,037.1,029.9,021.6,0000.0,0004.59,0010.07,0003.91
2024-06-13 01:54:00,SystemResetWarning,0829.2,5.00,000.00,028.6,027.0,000.0,037.0,030.1,021.6,0000.0,0004.55,0010.53,0003.91
2024-06-13 01:55:00,SystemResetWarning,0829.1,5.00,000.00,028.6,027.4,000.0,037.0,030.3,021.5,0000.0,0004.54,0010.32,0003.91
2024-06-13 01:56:00,SystemResetWarning,0829.2,5.00,000.00,028.7,027.7,000.0,037.0,030.5,021.4,0000.0,0004.57,0010.23,0003.91
2024-06-13 01:57:00,SystemResetWarning,0829.2,5.00,000.00,028.8,028.0,000.0,037.0,030.6,021.4,0000.0,0004.56,0010.77,0003.91
2024-06-13 01:58:00,SystemResetWarning,0829.2,5.00,000.00,028.9,028.3,000.0,037.0,030.8,021.3,0000.0,0004.52,0010.13,0003.91
2024-06-13 01:59:00,SystemResetWarning,0829.2,5.00,000.00,029.0,028.5,000.0,037.0,030.9,021.2,0000.0,0004.50,0010.10,0003.92
